Theta_e
325 325 323 322 322 322 323 323 320 321 321 322 323 323 324 323 323 323 323 323 322 323 322 323 323 323 323 323 323 323 323 322 321 320 319 318 319 320 320 320 320 320 320 320 320 320 320 321 321 321 320 320 320 320 319 319 319 319 318 317 317 317 317 316 316 315 314 313 312
325 324 322 318 318 321 322 322 321 320 321 323 323 324 324 324 323 323 323 323 323 323 323 323 323 323 323 323 323 323 323 322 321 320 320 319 319 320 320 320 320 320 320 320 320 320 320 320 320 320 320 320 320 320 319 319 319 318 318 317 317 317 317 316 316 316 315 314 313
325 324 323 322 322 322 323 322 322 322 322 323 323 323 324 324 324 324 323 323 324 324 323 323 323 322 322 323 323 323 323 322 322 321 320 320 321 321 321 321 320 320 319 319 320 320 320 320 320 319 319 320 320 319 319 319 319 318 318 317 317 317 317 316 317 317 316 315 314
325 324 324 323 323 323 323 322 322 322 322 323 323 323 324 324 324 324 324 324 323 324 323 323 322 322 322 322 323 323 322 321 321 321 321 321 321 321 321 321 320 320 320 319 319 319 320 320 320 320 319 320 319 319 319 319 318 318 318 318 318 317 316 317 317 317 317 315 315
325 324 324 323 323 323 323 323 322 322 322 323 323 323 324 324 324 324 324 323 323 323 323 323 323 322 322 322 322 322 322 320 318 320 322 322 322 322 321 321 320 320 320 319 319 320 320 320 320 320 320 320 320 319 319 319 319 318 318 318 318 317 317 316 317 317 316 315 315
324 324 324 323 323 323 323 323 322 322 322 322 322 323 323 323 324 324 323 323 323 323 323 321 321 320 320 322 322 322 321 321 320 321 322 321 322 322 321 321 320 320 320 320 320 320 320 320 320 320 320 320 320 320 320 319 318 318 318 318 317 317 316 316 316 316 315 314 314
325 324 324 323 323 323 323 323 322 322 322 323 322 322 322 323 323 323 323 323 323 323 322 319 320 320 320 321 322 321 321 321 321 322 321 321 321 321 321 320 320 320 320 320 320 320 321 321 320 319 318 317 319 319 319 319 318 318 317 317 317 317 316 316 316 316 315 313 313
324 324 323 323 323 323 323 323 323 322 322 323 322 322 322 322 322 323 323 323 323 322 322 321 321 321 321 321 321 321 321 321 321 321 321 321 321 321 320 320 320 320 320 320 321 321 320 320 320 319 319 318 318 319 319 319 318 318 317 317 317 317 317 316 316 316 315 314 313
324 323 323 323 323 323 323 322 322 322 322 322 322 322 322 322 322 323 323 323 322 322 322 322 322 321 321 321 321 321 321 321 320 321 321 321 320 320 320 320 320 320 321 321 321 321 320 320 320 320 319 319 319 319 319 319 318 317 317 317 317 317 317 317 316 316 315 315 313
324 323 323 322 323 322 323 322 322 322 322 322 322 322 320 318 320 322 323 323 322 322 322 322 322 321 321 320 320 321 321 321 321 321 320 320 320 320 320 320 320 320 320 321 322 321 320 320 320 320 319 319 319 318 318 318 317 317 317 317 316 316 316 316 316 316 316 315 314
323 323 323 322 322 322 322 322 321 321 321 322 322 322 321 318 320 322 323 323 323 322 322 322 322 321 320 320 320 320 320 320 320 320 320 320 319 320 320 320 320 320 320 321 322 321 321 320 320 319 319 319 319 318 318 318 317 317 317 317 316 316 316 316 316 316 316 315 315
323 323 322 322 322 322 322 322 321 321 321 322 322 322 322 322 322 322 322 323 323 322 322 322 322 321 320 320 320 320 319 320 320 319 319 319 320 320 320 320 320 320 321 321 321 321 321 320 320 319 319 319 319 318 318 317 317 317 316 316 316 316 316 316 316 316 316 316 315
323 323 322 322 322 322 321 321 321 321 321 322 322 322 322 322 322 322 322 323 322 322 323 322 322 321 321 321 320 320 320 320 319 319 318 319 319 319 319 319 320 320 320 320 321 320 320 319 320 319 319 319 319 318 318 317 317 317 316 316 316 316 315 316 316 316 316 316 315
323 323 322 322 322 321 321 321 321 321 321 321 322 322 322 322 321 321 322 323 323 323 323 322 321 321 321 321 321 320 320 319 319 319 318 318 318 318 318 319 319 319 319 320 320 320 319 319 319 319 319 318 318 318 318 317 317 317 316 316 316 315 315 316 316 316 316 315 315
323 322 322 322 321 321 321 320 320 320 321 321 322 322 322 322 321 321 321 323 323 323 323 322 321 321 321 322 321 321 320 320 319 319 318 318 318 318 318 318 318 318 319 319 319 319 319 319 319 319 319 318 318 318 318 317 317 317 316 316 316 316 316 316 316 316 315 315 315
322 322 321 321 321 321 321 321 320 320 321 321 321 322 322 322 321 320 321 322 322 322 322 322 322 322 321 321 321 321 321 320 319 319 318 318 318 317 318 318 318 318 318 318 318 318 318 318 318 318 318 318 318 318 318 317 317 317 317 317 316 316 316 316 315 315 315 315 314
322 321 321 321 320 320 320 321 321 320 320 321 321 321 322 322 321 320 319 320 321 322 322 321 321 321 321 320 321 321 321 320 319 319 318 318 317 317 317 317 317 317 318 318 317 317 318 318 318 318 318 318 318 318 318 317 317 317 317 317 317 316 316 315 315 315 315 315 314
321 321 321 321 321 320 320 320 320 321 320 321 321 321 322 322 321 320 319 320 321 321 321 321 321 321 321 321 320 320 320 320 319 319 318 318 318 318 317 317 317 317 317 317 317 317 317 317 318 318 318 318 318 318 318 317 317 317 317 316 317 316 316 316 316 316 316 315 314
321 321 321 321 321 320 320 320 320 320 320 320 321 321 321 321 321 321 320 320 320 321 321 320 320 320 320 320 320 319 318 319 319 319 319 319 318 318 317 317 317 317 317 317 317 317 317 317 318 318 317 317 317 317 317 317 317 317 317 317 317 316 316 316 316 316 316 316 315
321 321 321 321 321 320 320 319 320 320 320 320 320 320 320 321 320 320 320 320 320 321 321 320 320 320 320 320 320 319 319 319 320 320 319 319 318 318 317 317 317 317 317 317 317 317 317 317 317 317 317 317 317 317 317 317 316 316 316 316 316 316 316 316 316 316 316 316 316
321 321 321 321 321 320 320 320 321 320 320 320 320 320 320 320 320 320 320 319 320 321 321 320 320 320 320 320 320 320 319 319 319 319 319 318 318 318 318 317 317 317 317 317 317 317 317 317 317 317 317 317 316 316 316 316 316 316 316 316 316 316 316 316 316 316 316 316 316
322 322 322 321 321 320 321 320 320 320 320 320 320 320 320 320 320 320 319 319 320 320 320 320 320 320 319 319 319 319 319 319 319 319 319 318 318 318 317 317 318 317 317 317 317 317 317 317 317 317 316 316 316 316 315 315 315 315 315 315 315 315 315 316 316 316 316 315 315
322 322 321 321 321 320 319 320 320 320 320 319 319 319 319 320 320 320 320 320 319 319 320 320 319 319 319 319 319 319 319 319 319 319 319 319 318 318 318 318 317 317 317 317 317 317 317 317 316 316 316 316 316 316 315 315 315 315 315 315 315 315 315 315 315 315 315 315 315
322 321 321 322 321 320 320 320 320 320 320 320 320 320 319 319 320 320 319 319 319 319 319 320 320 319 319 319 319 319 319 319 319 319 319 319 319 318 318 318 317 317 317 317 316 315 315 315 316 316 316 316 316 316 316 315 315 315 315 315 315 315 314 314 314 314 314 314 314
321 321 321 321 321 321 320 320 320 320 320 320 319 319 319 319 319 319 319 319 319 319 319 319 319 319 319 319 319 319 319 318 318 318 318 318 318 318 318 318 318 318 317 315 309 306 306 309 312 315 316 316 316 316 316 315 315 315 315 315 314 314 314 314 314 314 313 314 314
322 322 321 322 321 321 320 320 320 320 320 320 320 320 319 319 319 319 318 318 318 319 319 319 319 317 317 318 318 318 318 318 318 318 318 318 318 318 318 318 318 318 316 311 304 301 301 303 305 308 312 317 316 315 315 315 315 315 315 315 314 314 314 314 314 313 313 314 314
322 321 321 321 321 320 320 320 320 320 320 320 320 319 319 319 319 318 318 318 318 318 319 319 318 316 314 318 318 318 318 318 318 318 318 318 318 318 318 318 318 318 315 307 301 299 300 301 301 303 308 316 316 315 315 315 315 314 314 314 314 314 314 314 313 313 313 313 314
322 322 322 321 321 321 320 320 320 320 320 320 319 319 319 319 319 318 318 318 318 318 318 318 318 317 316 318 318 317 317 317 317 317 317 317 317 317 318 318 318 315 310 302 300 299 300 300 300 301 303 309 315 316 315 315 314 314 314 314 314 314 314 314 314 314 313 313 313
322 322 321 321 320 320 320 320 320 320 320 320 319 319 319 319 318 318 318 318 317 318 318 318 317 317 318 317 317 317 317 317 317 317 317 317 317 317 318 318 317 311 303 297 298 299 300 300 300 300 300 304 312 315 316 315 315 314 314 314 314 314 314 314 314 314 314 313 313
322 322 321 321 320 320 320 320 320 320 320 320 320 319 319 319 318 318 318 317 317 317 317 318 318 317 317 317 317 317 317 317 317 316 316 316 316 316 316 315 316 310 302 295 298 299 300 300 299 299 299 300 308 314 316 315 315 315 315 315 314 314 314 313 313 312 312 312 312
322 322 321 320 320 320 320 320 320 320 320 320 320 319 319 318 318 318 318 318 317 316 315 317 317 316 316 315 315 316 316 316 316 316 316 316 313 313 314 315 315 309 301 294 297 298 299 299 299 298 298 299 305 312 316 315 314 311 309 307 305 304 305 305 305 304 305 305 307
322 321 321 320 320 320 319 319 319 320 320 320 319 319 318 318 318 318 318 318 317 316 316 316 317 316 315 314 315 315 315 315 316 315 315 314 313 313 313 314 315 308 300 293 296 297 298 298 298 297 297 297 303 309 312 308 304 300 297 295 295 295 295 295 295 295 295 296 298
322 321 321 321 320 320 320 319 319 319 319 319 319 319 318 318 318 318 318 317 317 316 316 316 316 315 314 313 314 314 314 314 314 312 312 312 313 313 313 313 313 303 295 293 295 295 296 296 296 295 295 295 300 302 301 297 294 293 292 291 291 291 291 291 291 292 292 292 293
321 321 321 321 320 320 319 319 319 319 319 319 319 318 319 318 318 317 317 316 316 316 316 316 315 314 313 312 312 312 312 311 312 312 313 313 313 313 312 313 305 296 291 292 294 295 295 295 295 294 294 294 297 297 295 294 293 292 291 290 289 289 289 288 288 289 289 289 290
320 320 320 321 320 320 319 319 319 319 319 318 318 318 318 317 317 317 316 314 315 315 316 315 314 314 313 313 313 313 312 312 313 313 314 314 314 313 310 306 296 291 289 290 291 293 294 295 295 295 295 295 296 295 293 291 290 289 288 288 287 287 287 287 287 287 287 288 288
320 320 320 320 320 320 319 319 318 318 318 318 318 318 317 317 317 316 315 312 314 315 315 315 315 315 314 311 309 306 305 307 308 308 307 307 309 309 306 299 295 291 289 289 290 291 292 294 294 295 295 296 295 293 291 290 288 287 287 286 285 285 286 286 286 286 286 286 287
320 320 319 319 320 319 319 319 318 318 318 317 317 317 316 316 316 316 315 313 315 315 315 315 314 311 306 300 296 294 294 295 295 295 294 295 298 299 299 296 294 291 289 289 289 291 292 294 294 295 295 296 294 292 290 289 287 286 285 285 284 284 284 284 285 285 285 285 285
320 320 319 319 319 319 318 318 318 317 317 316 316 316 315 315 316 315 314 312 314 315 315 313 308 301 296 294 293 292 292 292 293 293 293 293 294 294 295 294 293 292 290 289 289 291 292 294 294 295 295 295 293 291 289 287 286 285 284 283 283 283 283 283 284 284 284 284 285
320 320 319 319 319 319 318 318 317 317 316 316 315 315 314 315 315 314 313 312 315 314 310 305 299 296 294 293 291 290 290 290 290 290 291 291 292 292 293 293 293 292 291 289 289 291 292 294 294 294 294 294 293 291 289 286 285 284 283 282 282 282 282 282 282 282 283 283 284
319 319 319 319 319 318 318 318 317 317 316 316 316 315 315 314 314 314 312 310 309 305 300 296 295 293 292 291 290 289 288 288 289 289 289 290 290 290 291 292 292 292 291 290 290 291 292 293 293 293 293 293 292 290 288 286 284 283 282 281 281 281 281 281 281 281 281 282 283
319 319 319 319 318 318 318 318 317 317 317 316 315 314 313 312 311 310 307 303 300 298 296 294 293 292 291 290 289 288 287 287 287 287 288 288 288 289 289 290 291 291 291 291 291 291 292 293 293 293 292 292 291 290 288 286 283 282 281 281 280 280 280 280 280 280 280 281 281
Wind_Speed
10 9 8 8 7 7 6 5 5 5 6 6 6 6 6 6 6 6 6 6 6 6 7 7 6 6 7 11 14 15 15 16 17 17 18 19 18 18 18 17 17 17 17 18 18 16 14 14 11 10 9 8 8 8 8 7 9 10 9 9 8 8 9 9 8 7 7 7 6
11 10 9 8 7 6 6 5 5 5 6 6 6 6 6 6 6 6 6 6 6 7 7 6 6 7 8 11 14 15 16 16 17 18 18 20 19 19 19 17 18 19 19 19 19 16 15 15 13 12 10 8 8 8 8 8 10 10 10 11 9 8 9 9 9 9 8 7 6
12 11 10 9 8 7 7 6 6 7 7 7 6 6 6 6 6 6 6 6 7 7 6 6 6 8 9 11 13 14 14 15 17 18 18 18 19 20 19 17 19 20 20 20 19 17 16 17 15 13 10 9 9 9 9 9 10 10 9 11 9 8 8 8 9 9 8 6 7
12 12 11 11 11 10 9 7 7 8 8 6 6 6 6 6 5 5 6 6 7 7 6 6 7 8 9 10 12 13 13 14 16 17 17 17 18 19 19 18 19 20 21 21 21 20 19 19 15 13 11 11 11 10 9 8 10 9 9 9 8 8 8 8 9 8 8 7 7
12 12 11 11 12 11 9 8 8 8 7 6 6 6 6 5 5 5 5 6 6 7 7 8 8 8 8 10 12 13 13 14 14 15 15 16 16 17 18 18 19 20 20 21 22 22 21 20 15 12 11 11 11 10 9 9 10 9 8 7 7 7 7 7 8 8 8 8 7
12 11 11 11 12 11 9 8 9 9 8 7 7 7 7 6 6 6 6 7 7 8 8 9 8 8 9 10 11 12 12 13 12 12 13 14 14 15 17 18 19 19 19 19 21 21 21 19 13 11 10 10 10 10 10 10 10 10 9 8 7 7 7 7 6 7 8 8 8
12 12 11 11 12 11 9 9 9 9 8 8 9 9 9 7 7 7 8 7 7 7 8 8 9 9 10 11 11 12 12 12 11 12 12 12 13 14 15 17 19 19 19 19 19 19 18 17 13 10 10 9 9 10 11 11 10 10 10 9 8 8 8 8 6 6 7 10 11
11 11 12 12 12 12 11 10 9 9 9 8 10 11 11 9 9 9 8 7 7 7 8 8 10 11 12 12 12 12 12 13 12 12 12 11 12 13 14 16 18 19 19 19 18 17 16 15 12 11 10 9 8 10 12 13 12 12 11 11 9 9 8 8 7 7 8 11 13
10 11 11 12 12 12 11 11 10 10 10 9 10 11 11 10 10 10 9 8 7 7 8 8 11 12 13 13 13 13 13 13 13 13 12 12 12 13 13 14 17 18 18 18 17 17 17 14 12 11 11 10 10 11 12 15 15 14 13 11 10 10 10 10 10 10 10 12 14
11 11 11 11 12 12 11 11 11 11 11 11 11 11 11 10 10 10 9 7 7 7 8 9 11 12 13 14 14 13 13 13 13 13 12 12 13 13 14 14 16 17 17 16 15 16 16 14 12 12 11 10 12 13 14 15 16 15 13 10 10 11 12 12 12 12 12 12 15
11 11 11 10 12 12 11 11 10 10 10 10 11 11 10 9 10 9 8 7 7 8 9 9 11 12 13 13 13 13 12 12 12 12 12 12 13 14 14 14 15 16 16 15 13 13 14 13 13 14 14 12 13 14 15 16 17 16 14 10 11 12 13 14 13 13 13 13 15
12 11 11 11 12 12 11 11 10 10 10 10 10 10 10 10 10 10 9 9 9 9 9 9 10 11 12 11 12 11 11 11 11 11 11 11 12 13 14 14 15 16 16 14 12 11 11 13 15 16 16 15 13 13 14 16 17 17 15 13 12 13 13 14 14 13 12 13 14
12 11 11 11 12 12 11 10 9 9 10 10 10 10 10 10 10 10 10 10 10 9 8 8 10 10 11 10 11 11 11 11 11 10 10 10 10 12 13 13 14 15 15 13 11 10 10 13 16 18 19 18 15 15 15 17 17 17 16 15 14 14 13 14 14 13 12 13 14
12 12 11 11 12 12 11 10 9 9 9 10 10 9 9 9 9 9 9 10 9 9 8 8 9 9 10 10 11 11 12 12 12 12 11 10 10 11 12 12 13 13 13 12 11 10 11 12 15 17 19 21 19 18 18 17 17 17 17 17 16 15 14 14 13 13 13 14 14
12 12 12 12 12 11 10 10 9 8 9 9 9 9 9 8 8 8 9 9 9 8 8 8 8 9 10 11 11 12 12 13 14 14 13 12 12 12 12 12 12 12 12 11 11 11 11 12 13 14 16 19 21 21 20 19 18 18 18 18 17 16 15 14 13 12 13 13 13
12 12 12 12 12 11 10 10 8 8 8 8 9 8 8 8 8 8 8 9 8 7 7 8 8 9 9 10 11 12 12 13 14 14 15 14 14 14 13 13 12 12 12 12 12 11 11 11 10 11 12 14 18 20 21 20 19 18 18 18 17 17 16 15 14 13 12 12 12
12 12 12 12 12 12 11 10 8 8 8 8 8 8 8 7 7 7 8 8 7 7 8 9 8 9 9 10 10 11 11 12 13 14 14 15 16 16 15 14 14 13 13 14 13 12 12 11 10 9 9 9 12 16 19 20 19 18 18 18 17 17 16 15 14 13 13 12 12
12 12 13 13 13 13 12 11 9 9 9 9 9 8 8 7 8 8 8 8 8 8 9 9 9 9 9 10 10 9 10 11 12 13 14 15 16 16 16 16 15 14 14 14 14 13 13 12 10 9 8 7 8 10 13 17 17 17 17 17 17 16 15 15 14 13 12 12 12
13 13 13 13 13 13 13 12 11 10 10 9 9 8 8 8 8 8 8 8 8 9 9 9 9 9 9 10 10 9 9 10 12 13 13 14 15 15 16 16 16 15 14 14 14 13 13 12 11 10 8 7 7 7 9 11 13 14 15 15 16 15 15 14 14 13 12 12 12
13 13 13 13 13 13 12 12 11 10 10 9 10 9 9 9 9 9 9 9 9 9 9 9 9 9 9 10 10 10 9 9 11 12 13 13 14 14 15 15 15 15 15 14 13 13 12 12 11 10 9 8 7 7 7 7 9 10 12 12 13 13 13 13 13 12 12 12 12
12 12 12 12 12 12 12 12 11 10 10 10 10 10 10 10 10 10 10 10 9 9 9 9 9 9 10 10 10 10 10 8 10 11 12 12 13 14 14 14 14 14 14 14 13 13 12 12 12 11 10 9 8 8 7 7 7 8 9 9 10 11 11 11 11 12 12 12 12
12 11 11 12 12 12 11 11 11 10 10 10 10 10 10 10 10 10 10 10 9 9 9 9 9 9 9 9 10 10 9 8 9 10 10 11 12 12 13 13 14 14 14 14 14 13 13 12 12 12 11 10 9 9 9 8 8 8 8 8 9 9 10 10 10 11 11 12 12
11 10 10 11 11 11 11 11 11 11 10 10 10 10 10 10 10 10 10 10 9 9 9 8 8 9 9 9 9 9 9 8 8 9 9 10 10 11 12 12 13 14 14 13 13 13 13 12 12 12 11 11 10 10 10 9 9 9 9 9 9 9 9 9 10 10 10 11 11
10 10 9 9 10 11 11 11 11 11 11 10 10 10 10 10 10 10 10 10 10 10 9 7 7 8 8 8 9 9 9 8 8 8 9 9 9 10 11 11 12 12 12 11 11 12 12 11 11 11 11 11 11 10 10 10 10 10 10 10 10 9 9 9 10 10 10 10 10
10 9 9 9 10 11 11 11 11 11 11 11 10 10 10 10 10 10 10 10 10 10 9 8 7 7 8 8 8 8 8 8 8 8 8 9 9 9 10 9 10 10 9 9 11 11 11 10 10 10 10 10 10 10 9 10 10 10 9 9 9 9 9 10 10 10 10 10 10
10 10 10 10 11 11 11 12 12 11 11 11 10 10 10 10 10 10 10 10 10 9 9 8 8 7 7 8 8 8 8 8 8 8 8 8 9 9 9 8 8 8 8 8 11 12 12 11 10 9 9 9 9 9 9 8 9 9 9 9 9 9 9 9 9 10 10 10 10
10 10 11 11 12 12 12 12 12 11 11 11 11 11 10 10 9 9 10 10 10 9 9 8 8 7 6 7 8 9 8 7 7 7 7 7 8 9 9 8 7 7 7 9 12 13 13 13 11 10 10 9 9 9 8 8 8 9 9 9 8 9 9 9 9 9 9 9 10
10 11 11 12 12 12 12 12 12 12 11 11 11 11 10 10 10 9 9 9 9 9 8 7 7 6 5 6 8 8 8 8 7 7 7 7 7 8 8 7 7 6 7 10 13 14 14 14 13 12 11 9 9 9 8 8 8 8 8 8 8 8 8 8 8 8 9 9 9
10 11 11 11 12 12 12 12 12 12 12 11 11 11 10 10 10 10 10 10 9 9 8 6 5 5 5 5 7 7 8 8 7 7 7 7 7 7 6 6 6 6 7 11 14 15 15 15 14 13 12 11 9 7 7 7 7 7 7 7 7 8 8 8 8 8 9 9 9
10 10 10 11 11 11 12 12 12 12 11 10 10 11 11 10 10 10 10 10 10 9 7 6 6 6 6 6 6 7 7 7 7 7 7 7 7 6 6 5 5 5 7 12 14 15 15 15 14 14 13 12 10 8 7 6 6 6 5 5 4 3 4 4 4 4 5 5 6
9 9 10 10 10 11 11 11 11 11 11 10 10 11 11 10 11 10 10 10 9 8 7 7 7 7 7 6 6 6 6 7 7 7 7 8 7 6 6 5 5 5 7 11 13 14 14 14 14 14 14 13 10 7 5 4 2 2 2 3 4 5 5 5 5 5 5 4 2
9 9 9 10 10 10 10 10 10 10 11 11 11 11 11 10 10 9 9 9 8 8 8 8 8 8 7 6 6 6 6 7 7 7 7 7 7 6 6 6 5 4 5 9 11 12 13 13 13 12 11 9 5 3 4 7 8 9 9 9 10 10 9 8 8 8 8 7 6
10 9 9 9 9 10 10 10 10 10 10 11 11 11 10 10 9 8 8 8 8 8 9 8 8 8 7 7 7 6 6 7 7 7 7 7 7 7 7 5 3 4 4 5 7 9 10 10 10 9 8 7 8 10 11 11 9 9 9 10 10 11 11 11 9 9 9 8 7
11 10 9 9 9 9 9 10 10 10 10 11 10 10 10 9 9 9 8 7 7 7 7 7 7 7 7 7 6 6 6 6 6 7 7 7 8 7 6 4 4 5 6 5 6 7 8 8 9 10 12 12 11 11 12 11 10 10 10 11 11 11 11 12 11 11 10 9 8
11 11 10 9 9 9 10 10 10 10 10 10 10 10 9 9 9 8 8 6 6 6 6 6 5 5 5 5 4 4 3 3 4 5 6 6 7 6 6 7 6 6 7 7 6 7 8 10 13 14 14 12 11 11 12 13 12 12 12 12 12 12 13 13 12 11 11 10 8
11 11 11 10 9 9 10 11 11 11 10 10 9 9 9 8 8 7 7 6 6 6 7 6 6 5 5 5 6 6 6 6 6 5 5 4 3 5 8 9 7 6 6 6 6 8 10 14 16 16 15 12 10 10 11 11 11 12 13 14 13 14 14 13 12 12 11 10 9
11 11 10 10 9 9 10 10 10 10 10 9 9 8 8 8 7 7 6 6 7 7 7 6 6 7 9 10 10 10 10 11 11 11 11 10 9 9 9 8 6 5 4 4 5 7 11 15 17 17 15 12 11 10 10 10 10 11 12 13 13 13 12 11 12 12 13 13 12
11 11 10 10 9 9 9 10 10 10 9 8 7 7 7 7 7 7 7 6 7 7 7 8 10 11 12 12 12 12 12 11 11 11 11 10 9 9 8 8 6 4 3 2 4 7 11 15 17 16 15 12 12 11 10 10 10 10 11 11 11 12 11 10 10 12 14 17 17
11 11 10 10 9 9 9 9 9 9 9 8 7 7 7 7 7 6 6 5 6 7 9 11 12 12 12 13 13 13 13 13 12 12 11 11 10 9 8 8 7 5 3 2 4 7 10 14 17 17 16 13 12 11 10 11 11 11 11 10 10 11 11 10 10 11 13 18 22
10 10 10 10 10 9 9 9 9 9 8 8 8 7 7 6 5 5 6 6 9 11 12 13 13 12 12 13 14 14 14 13 13 13 12 12 11 11 11 10 9 7 6 4 5 7 10 13 16 17 16 13 12 11 10 11 12 12 11 10 9 10 10 10 10 10 12 15 19
10 10 10 10 10 10 9 9 9 8 8 8 8 6 5 5 6 8 9 11 12 12 12 12 13 13 13 13 13 14 14 14 14 13 13 13 13 13 13 12 11 11 9 8 8 9 11 13 15 16 15 13 12 11 10 11 12 13 12 10 9 9 9 9 9 10 11 13 14
Wind_Direction
174 173 172 173 175 176 177 178 178 177 176 175 174 176 179 181 183 183 183 181 181 183 185 186 185 183 181 179 180 180 180 177 178 179 179 179 178 177 175 174 173 172 173 175 179 183 187 190 192 194 194 194 193 190 188 189 196 197 195 188 183 179 176 176 180 189 201 217 211
174 172 170 169 170 172 173 173 174 174 175 176 175 177 179 181 182 182 182 183 183 183 182 179 175 175 176 178 180 180 179 177 177 177 178 179 178 177 176 175 176 176 177 178 180 183 187 191 194 197 198 196 191 187 185 185 192 193 190 183 181 177 176 178 181 187 197 215 219
174 173 172 172 173 174 175 175 174 174 176 177 176 177 179 180 181 181 181 183 181 180 178 172 170 170 172 174 178 179 178 177 176 176 176 178 178 178 177 176 178 179 181 181 182 184 187 191 194 198 200 198 193 188 184 181 187 189 187 182 179 177 177 181 184 187 193 208 217
175 175 175 176 177 178 178 176 174 173 174 176 173 174 178 179 179 178 178 178 178 178 175 169 168 169 170 172 175 177 177 176 175 175 175 176 176 177 176 176 178 181 183 185 185 186 188 190 194 197 200 198 195 191 185 178 182 186 187 182 180 178 178 181 184 187 193 204 212
177 177 177 177 178 178 178 175 172 172 173 173 172 175 178 177 175 174 173 176 179 178 173 167 167 168 168 170 172 174 174 174 174 174 175 175 174 175 175 176 178 182 185 187 188 188 188 189 192 196 198 197 195 191 185 175 177 182 186 183 181 180 179 179 183 188 193 201 206
177 176 176 175 177 177 176 173 171 171 172 174 174 176 179 178 174 173 174 177 178 175 169 164 165 165 166 169 170 171 172 173 174 174 175 175 173 173 174 176 179 182 186 189 190 190 189 189 191 193 194 194 193 188 180 173 176 181 184 183 182 179 177 178 182 189 194 199 200
175 174 174 174 175 175 174 170 170 172 174 176 178 179 179 177 173 172 172 173 173 171 168 165 166 166 167 169 171 171 172 172 173 173 173 174 172 172 174 176 179 183 186 189 190 190 190 189 190 190 188 186 185 181 178 175 178 182 185 186 182 178 176 178 181 188 195 198 197
173 172 172 172 174 174 173 168 170 174 177 180 181 181 179 175 171 169 168 169 172 171 170 169 170 169 169 171 172 173 173 173 173 173 173 171 170 170 171 174 179 183 186 188 189 188 188 187 189 188 186 183 180 178 177 177 179 183 186 187 183 179 177 177 179 187 196 200 200
171 172 172 171 173 173 172 168 171 176 181 183 183 181 178 175 171 169 168 171 172 170 169 171 171 170 171 172 174 174 175 175 175 174 173 171 168 168 170 174 179 182 185 186 187 186 184 183 186 187 187 186 183 180 177 177 179 182 186 188 184 181 178 176 178 185 194 202 204
170 170 171 171 172 172 171 170 174 179 182 182 181 179 178 176 174 173 172 171 168 168 169 171 171 171 172 174 175 177 177 178 177 176 174 172 169 169 171 175 179 181 182 183 183 182 181 180 183 186 187 188 187 184 180 178 179 181 183 186 184 181 179 177 178 183 192 201 205
168 168 169 170 170 169 169 171 176 180 182 181 180 179 178 180 180 178 175 169 168 168 169 168 169 171 173 175 176 177 177 179 179 179 176 174 171 172 174 177 180 181 181 180 179 179 179 180 182 185 187 189 188 186 182 180 180 181 181 182 183 183 181 179 179 183 191 201 205
166 166 167 167 167 167 169 172 176 180 182 181 179 178 179 182 183 181 176 171 172 171 169 165 168 171 174 175 174 173 174 176 179 179 178 176 174 175 176 179 181 182 182 180 178 178 178 180 182 185 188 189 189 187 183 181 180 180 181 181 183 184 184 181 180 183 190 199 205
165 165 165 166 166 167 169 174 177 180 182 181 179 178 179 182 183 181 179 177 177 175 170 165 168 171 173 174 172 170 169 170 174 177 178 178 177 178 179 180 182 183 183 183 182 181 181 182 184 187 189 189 189 187 184 180 179 179 180 180 182 184 185 183 181 183 189 197 203
164 164 165 165 166 168 171 175 177 179 181 180 179 177 177 179 181 182 181 181 181 178 173 167 169 171 174 175 173 171 170 170 172 174 177 180 181 182 182 183 183 184 185 186 187 187 188 188 189 190 190 188 188 185 182 180 179 179 179 180 182 183 184 182 181 183 188 194 200
165 165 165 165 167 170 173 176 177 179 179 179 178 175 175 176 178 180 182 184 183 179 174 171 171 173 175 177 176 176 175 175 175 176 178 180 183 185 186 185 184 184 185 187 190 192 194 194 195 194 192 189 186 182 179 178 179 180 181 182 183 182 181 179 180 183 187 192 196
167 167 167 167 170 172 176 177 177 177 177 178 175 173 171 172 174 178 181 183 181 178 176 174 174 176 178 179 179 180 181 181 180 180 181 182 184 185 186 187 186 185 185 186 190 193 195 195 195 195 194 193 187 181 177 176 178 180 183 184 183 182 181 178 179 182 186 189 192
170 170 170 171 173 175 177 178 176 174 174 174 171 168 167 167 170 174 179 180 177 176 175 176 176 177 179 181 181 181 183 185 185 185 185 186 186 187 187 188 187 186 186 187 189 191 192 192 190 189 191 195 191 183 177 175 177 179 182 183 183 182 181 179 179 181 185 188 190
173 173 174 175 176 177 177 178 175 172 171 170 168 166 165 164 167 171 175 177 175 174 173 175 176 177 179 180 180 181 183 185 187 188 189 190 189 189 189 190 188 188 188 188 189 190 190 188 185 183 184 191 194 187 180 175 176 178 180 182 182 182 181 180 179 180 183 186 190
176 176 176 177 178 178 177 176 174 172 170 170 169 168 166 166 166 169 173 178 176 173 172 172 175 177 178 179 180 181 182 185 187 189 191 192 192 191 191 191 190 189 188 189 190 190 188 186 182 180 179 182 189 188 183 178 176 176 178 179 179 179 180 180 180 180 183 186 189
178 178 178 178 178 177 176 175 174 172 170 171 172 172 170 169 169 171 175 179 178 175 173 172 174 176 178 179 180 181 184 186 187 189 191 192 192 192 192 192 190 189 189 190 190 190 188 185 183 181 179 179 182 183 183 179 176 175 176 177 178 178 179 179 180 183 186 189 191
181 180 178 177 176 175 174 175 173 172 172 174 176 176 175 172 173 174 176 178 177 176 175 174 174 175 177 179 181 183 185 187 188 189 190 190 191 191 191 190 189 189 190 191 191 190 189 187 185 184 183 181 181 181 181 180 178 178 178 179 179 178 178 179 183 187 191 194 195
181 178 175 173 173 172 173 174 174 173 174 177 179 179 178 176 177 177 176 175 176 177 177 175 175 175 176 178 181 183 185 187 189 190 190 189 190 190 189 188 188 189 190 192 192 191 190 189 189 188 187 186 185 184 183 183 183 183 184 185 184 181 181 182 188 193 197 200 201
178 174 172 171 171 171 172 174 176 176 177 179 180 181 180 178 179 176 174 173 176 178 178 176 175 175 176 178 180 181 183 185 188 190 190 189 190 190 189 188 189 190 191 191 191 191 190 190 190 191 191 191 191 190 189 188 187 188 189 191 189 187 186 187 192 197 201 204 205
176 173 171 172 174 175 176 178 178 179 179 180 181 181 180 179 178 175 173 174 177 178 178 176 174 174 175 177 179 180 181 182 184 187 188 188 188 188 188 188 190 191 191 191 190 189 189 189 190 191 192 194 195 195 194 194 193 194 194 195 194 192 191 191 194 198 203 206 208
176 174 174 176 178 179 180 181 181 181 181 180 180 180 179 177 176 174 173 174 176 177 177 175 173 173 174 177 179 179 179 179 181 182 183 184 184 184 185 187 189 190 190 189 185 184 183 185 188 189 191 192 194 196 197 197 197 197 197 197 196 195 195 194 196 199 202 206 208
179 178 179 182 182 183 183 183 182 181 180 178 178 178 177 175 174 173 172 173 175 175 176 174 173 172 173 176 178 179 179 179 178 178 178 179 179 181 182 185 187 188 188 184 179 178 178 179 181 184 187 189 190 192 194 195 196 196 197 197 197 196 196 196 198 200 202 205 208
183 184 185 186 185 184 184 182 181 178 176 175 175 175 174 172 171 171 171 172 173 174 174 175 172 171 171 176 178 179 179 178 177 176 175 174 176 178 181 184 184 185 183 178 175 174 174 175 176 178 181 186 187 189 190 192 192 192 193 194 195 196 197 198 199 200 202 205 208
188 188 188 187 185 183 181 179 177 176 174 172 172 172 171 170 170 171 171 171 171 172 174 176 172 170 171 177 178 179 179 178 176 175 174 173 174 176 178 181 182 180 175 171 172 173 175 175 175 175 178 183 187 189 190 190 190 190 191 194 195 197 199 201 202 203 204 206 208
188 186 183 182 180 178 176 176 175 174 172 171 171 170 170 170 171 171 171 171 171 172 174 175 170 170 172 177 177 178 178 177 176 174 173 173 174 176 176 175 172 166 163 165 170 174 177 177 177 177 178 181 186 190 193 194 194 194 195 195 197 198 200 202 204 205 206 205 204
182 179 177 176 174 173 173 174 173 172 171 170 171 171 171 171 173 173 173 173 174 174 174 172 169 171 173 174 172 174 176 177 174 173 174 175 178 179 177 172 165 157 157 163 169 174 177 178 178 179 180 182 188 193 198 201 202 203 204 202 197 191 189 189 192 194 194 191 186
180 177 174 173 172 172 172 172 172 172 172 172 173 173 173 174 175 175 175 175 173 171 168 167 167 168 168 165 165 169 172 173 173 174 176 177 179 180 178 174 166 157 156 162 168 172 175 177 178 179 181 183 189 193 193 180 148 105 78 63 50 48 52 61 60 57 57 63 87
184 180 177 175 175 173 172 170 171 172 173 174 175 175 175 175 175 174 173 171 166 164 163 166 166 164 162 159 163 166 169 171 173 175 177 178 179 180 181 180 168 150 145 160 166 169 171 173 174 174 173 170 163 128 87 74 68 66 63 60 55 53 52 53 50 46 43 41 37
190 187 184 181 178 175 172 170 172 174 176 177 176 176 175 173 171 170 168 165 162 162 164 167 166 164 162 163 166 168 170 173 174 174 174 175 178 179 180 177 142 95 91 136 156 163 165 164 157 143 122 93 79 77 78 76 74 71 68 64 60 58 57 57 54 50 45 41 36
194 194 191 188 182 177 173 171 174 176 178 178 176 174 172 168 168 167 166 163 161 162 164 166 166 165 165 166 168 171 173 176 177 177 178 178 180 178 170 139 79 55 56 86 122 141 148 145 126 107 91 80 80 82 84 84 81 77 72 68 63 59 56 55 51 48 44 40 37
195 196 196 193 186 180 175 174 176 179 179 179 175 172 168 165 166 165 163 157 156 158 160 163 163 162 161 158 151 151 156 164 174 178 181 183 181 166 138 97 75 58 54 71 96 117 127 127 115 104 96 90 91 89 87 83 80 77 73 69 63 58 56 54 50 46 42 39 36
192 195 196 194 187 181 177 175 177 179 179 178 173 168 165 163 164 161 156 150 152 156 159 162 157 143 120 86 67 54 47 46 51 49 43 36 74 97 97 88 76 61 56 68 94 113 121 122 116 110 104 99 96 93 89 85 82 78 74 71 65 60 57 56 53 49 44 40 36
190 191 192 191 186 181 177 175 176 177 177 175 170 165 161 160 160 158 154 151 156 159 158 151 124 98 82 72 62 52 47 46 51 51 48 42 51 66 78 79 68 57 54 70 104 121 125 125 120 116 111 106 103 98 93 88 84 79 76 73 68 64 60 58 55 51 48 44 40
188 188 189 187 184 180 177 175 175 175 174 171 166 162 159 158 159 159 157 158 162 158 144 117 95 86 82 81 74 64 55 51 55 58 58 53 52 59 68 70 60 50 47 79 121 131 132 128 124 119 115 112 110 105 99 92 87 82 79 75 71 66 61 58 56 53 51 49 47
188 187 186 186 183 180 177 175 174 172 170 167 164 161 159 159 160 159 156 152 141 121 103 92 90 89 87 84 77 68 59 52 52 54 56 55 51 53 58 63 55 45 43 77 127 137 134 129 123 119 116 113 112 108 103 98 92 87 83 80 76 70 64 61 59 56 54 52 51
187 187 186 185 183 181 178 175 173 170 167 165 163 161 158 156 149 134 115 93 89 88 88 89 91 90 87 84 80 73 66 58 55 54 54 55 51 50 52 56 52 46 46 64 108 125 128 124 119 117 115 112 112 110 107 104 97 92 87 83 81 76 71 64 62 59 57 54 52
186 185 185 184 182 180 177 175 172 168 165 162 159 154 142 124 105 95 90 86 86 88 91 92 90 88 85 83 81 77 72 64 59 55 54 54 52 49 48 50 49 48 49 57 80 99 108 111 112 113 113 113 113 112 110 108 102 97 93 88 86 83 78 72 66 61 58 56 54